Regional Weather Roundup
Issued by NWS

Home | Current Version | Previous Version | Graphics & Text | Print | Product List | Glossary On
Versions: 1 2 3 4 5 6 7 8 9 10 11 12 13 14 15 16 17 18 19 20 21 22 23 24 25 26 27 28 29 30 31 32 33 34 35 36 37 38 39 40 41 42 43 44 45 46 47 48 49 50
000
ASUS45 KABQ 301110
RWRNM
NEW MEXICO REGIONAL WEATHER ROUNDUP
NATIONAL WEATHER SERVICE ALBUQUERQUE NM
500 AM MDT THU MAR 30 2017

NOTE: "FAIR" MEANS FEW OR NO CLOUDS BELOW 12,000 FEET AGL WITH NO
       SIGNIFICANT WEATHER OR OBSTRUCTIONS TO VISION.

      THIS PRODUCT IS RELEASED AS TWO VERSIONS.  ONE VERSION NEAR
      THE TOP OF THE HOUR CONTAINING PRELIMINARY DATA FROM ALBUQUERQUE
      AND OTHER STATIONS.  A FINAL VERSION WITH ADDITIONAL DATA IS
      ISSUED ABOUT 10 MINUTES AFTER THE HOUR.

NMZ501-503-504-510>518-301200-
NORTHWEST PLATEAU/NORTHCENTRAL MOUNTAINS

CITY           SKY/WX    TMP DP  RH WIND       PRES   REMARKS
FARMINGTON     FAIR      31  20  63 N5        29.99F WCI  26
LOS ALAMOS     FAIR      37  33  86 NW5       30.03S WCI  33
SANTA FE       FAIR      33  32  96 CALM      30.00F
TAOS             N/A     27  19  74 NW5       30.02F WCI  21
ANGEL FIRE     FAIR      32  28  84 S8        30.00  WCI  25

$$
NMZ402-403-502-505>509-301200-
WESTCENTRAL MOUNTAINS/SOUTHWEST MOUNTAINS

CITY           SKY/WX    TMP DP  RH WIND       PRES   REMARKS
GALLUP         FAIR      26  20  77 CALM      30.08F
GRANTS         FAIR      29  22  75 NW7       30.09S WCI  22
SILVER CITY    FAIR      33  28  80 N9        30.07S WCI  25

$$
NMZ407-409-411-412-301200-
SOUTHERN DESERTS

CITY           SKY/WX    TMP DP  RH WIND       PRES   REMARKS
DEMING         FAIR      38  31  76 SW3       30.05F
LAS CRUCES     FAIR      38  34  85 CALM      30.05F
HOLLOMAN AFB   FAIR      39  37  92 NE6       30.06F WCI  35
ALAMOGORDO       N/A    N/A N/A N/A MISG        N/A
T OR C         FAIR      41  32  70 W7        30.03F

$$
NMZ519>523-301200-
CENTRAL VALLEYS/CENTRAL HIGHLANDS

CITY           SKY/WX    TMP DP  RH WIND       PRES   REMARKS
ALBUQUERQUE    FAIR      40  36  86 SE6       30.03S
MORIARTY ARPT  FAIR      30  29  95 SE3       30.02S
CLINES CORNERS NOT AVBL
BELEN          FAIR      39  36  89 SE3       30.02F
SOCORRO        FAIR      36  35  95 SW5       30.02F WCI  32

$$
NMZ524>526-539-540-301200-
SOUTHCENTRAL MOUNTAINS

CITY           SKY/WX    TMP DP  RH WIND       PRES   REMARKS
RUIDOSO        FAIR      36  32  87 SW8       30.06S WCI  29

$$
NMZ527>531-301200-
NORTHEAST HIGHLANDS/NORTHEAST PLAINS

CITY           SKY/WX    TMP DP  RH WIND       PRES   REMARKS
LAS VEGAS      FAIR      33  28  81 NE5       29.93F WCI  29
RATON          FAIR      26  22  84 NE8       29.90F WCI  18
CLAYTON        FAIR      39  34  82 W7        29.86F WCI  34

$$
NMZ532>537-301200-
EASTCENTRAL PLAINS

CITY           SKY/WX    TMP DP  RH WIND       PRES   REMARKS
TUCUMCARI      FAIR      38  36  92 W7        29.86F WCI  33
CANNON AFB     FAIR      40  40 100 W12       29.90F WCI  34
CLOVIS AIRPORT FAIR      41  36  81 W13       29.90F

$$
NMZ028-029-538-301200-
SOUTHEAST PLAINS

CITY           SKY/WX    TMP DP  RH WIND       PRES   REMARKS
ROSWELL        FAIR      37  34  89 SE5         N/A  WCI  33
ARTESIA        FAIR      39  36  87 SE5       29.96F
CARLSBAD       FAIR      38  31  76 SE5       29.95F WCI  34


$$




USA.gov is the U.S. government's official web portal to all federal, state and local government web resources and services.